This is the latest recevied weather packets stored in our database for station/object ALANSN-2. If no packets are shown the sender has not sent any weather packets the latest 10 day(s).
| Time | Temp. | Humidity | Pressure | Rain* | Wind** | Luminosity | Snow |
|---|---|---|---|---|---|---|---|
| 1787707020 | 16.11° C | 91% | 1027.4 hPa | 0 mm | - | 0 W/m² | - |
| 1787706721 | 16.11° C | 91% | 1027.4 hPa | 0 mm | - | 0 W/m² | - |
| 1787706419 | 16.11° C | 90% | 1027.4 hPa | 0 mm | - | 0 W/m² | - |
| 1787706120 | 16.67° C | 89% | 1027.3 hPa | 0 mm | - | 0 W/m² | - |
| 1787705820 | 16.67° C | 89% | 1027.3 hPa | 0 mm | - | 0 W/m² | - |
| 1787705520 | 17.22° C | 89% | 1027.4 hPa | 0 mm | - | 0 W/m² | - |
| 1787705218 | 17.78° C | 85% | 1027.4 hPa | 0 mm | - | 0 W/m² | - |
| 1787704919 | 17.78° C | 85% | 1027.4 hPa | 0 mm | - | 0 W/m² | - |
| 1787704620 | 17.78° C | 84% | 1027.3 hPa | 0 mm | - | 0 W/m² | - |
| 1787704320 | 19.44° C | 79% | 1027.4 hPa | 0 mm | - | 1 W/m² | - |
| 1787704020 | 19.44° C | 79% | 1027.4 hPa | 0 mm | - | 1 W/m² | - |
| 1787703720 | 19.44° C | 77% | 1027.4 hPa | 0 mm | - | 2 W/m² | - |
| 1787703420 | 21.11° C | 71% | 1027.6 hPa | 0 mm | - | 8 W/m² | - |
| 1787703120 | 21.11° C | 71% | 1027.6 hPa | 0 mm | - | 8 W/m² | - |
| 1787702820 | 21.67° C | 71% | 1027.5 hPa | 0 mm | - | 10 W/m² | - |
| 1787702519 | 22.22° C | 66% | 1027.5 hPa | 0 mm | - | 21 W/m² | - |
| 1787702221 | 22.22° C | 66% | 1027.5 hPa | 0 mm | - | 21 W/m² | - |
| 1787701920 | 22.22° C | 66% | 1027.5 hPa | 0 mm | - | 24 W/m² | - |
| 1787701620 | 22.78° C | 67% | 1027.4 hPa | 0 mm | - | 28 W/m² | - |
| 1787701320 | 22.78° C | 65% | 1027.4 hPa | 0 mm | - | 35 W/m² | - |
| 1787701020 | 22.78° C | 66% | 1027.5 hPa | 0 mm | - | 38 W/m² | - |
| 1787700720 | 23.33° C | 64% | 1027.5 hPa | 0 mm | - | 42 W/m² | - |
| 1787700420 | 23.89° C | 60% | 1027.6 hPa | 0 mm | - | 66 W/m² | - |
| 1787700120 | 23.89° C | 61% | 1027.6 hPa | 0 mm | - | 71 W/m² | - |
| 1787699820 | 23.89° C | 64% | 1027.6 hPa | 0 mm | - | 81 W/m² | - |
* Rain latest hour (hover to see other rain measurements)
** Current wind speed in m/s (hover to see current wind gust speed)